Date,TemperatureHighF,TemperatureAvgF,TemperatureLowF,DewpointHighF,DewpointAvgF,DewpointLowF,HumidityHigh,HumidityAvg,HumidityLow,PressureMaxIn,PressureMinIn,WindSpeedMaxMPH,WindSpeedAvgMPH,GustSpeedMaxMPH,PrecipitationSumIn
2013-1-1,38,34,25,31,27,16,83,75,61,30.02,29.85,13,2,14,0.02
2013-1-2,32,26,20,19,16,14,78,68,57,30.20,30.00,11,2,12,0.00
2013-1-3,32,26,20,22,18,15,81,70,55,30.21,30.07,12,2,13,0.00
2013-1-4,36,33,28,25,23,21,77,68,59,30.10,29.97,20,4,23,0.00
2013-1-5,41,33,29,26,23,20,84,67,54,30.31,30.05,17,2,19,0.00
2013-1-6,43,36,30,31,29,24,87,76,61,30.21,29.98,13,1,14,0.00
2013-1-7,44,37,30,32,28,26,85,71,52,30.39,30.06,11,1,13,0.00
2013-1-8,45,33,24,32,28,22,94,81,60,30.39,30.34,10,1,10,0.00
2013-1-9,42,32,25,37,29,23,95,90,76,30.39,30.16,13,1,13,0.01
2013-1-10,47,41,36,33,29,28,75,61,48,30.52,30.26,19,2,19,0.00
2013-1-11,42,38,34,41,33,28,100,84,71,30.51,30.09,7,0,7,0.30
2013-1-12,45,42,39,44,42,38,99,98,97,30.16,30.08,6,0,6,0.01
2013-1-13,47,44,42,47,44,42,100,99,99,30.14,29.97,5,0,6,0.02
2013-1-14,54,47,37,52,42,30,100,84,50,30.29,29.85,13,2,14,0.07
2013-1-15,37,35,32,34,29,26,94,78,66,30.35,30.19,12,1,12,0.08
2013-1-16,33,32,30,33,31,29,98,97,92,30.20,29.82,8,1,8,0.14
2013-1-17,40,36,33,34,31,27,98,82,70,30.09,29.93,14,1,16,0.27
2013-1-18,33,27,24,28,15,7,80,61,41,30.45,29.99,19,2,20,0.00
2013-1-19,47,36,23,30,25,13,79,64,48,30.38,29.88,13,1,15,0.04
2013-1-20,51,38,27,33,24,13,83,59,31,30.05,29.71,24,3,24,0.00
2013-1-21,28,26,22,21,14,9,85,61,53,30.08,29.86,17,1,20,0.00
2013-1-22,23,16,11,9,1,-5,63,51,38,30.23,29.86,21,4,22,0.00
2013-1-23,17,12,9,6,1,-4,80,61,46,30.27,30.17,15,2,15,0.00
2013-1-24,23,15,9,7,4,0,92,62,38,30.46,30.13,23,3,24,0.00
2013-1-25,20,15,11,14,7,0,100,70,54,30.47,30.07,11,1,11,0.00
2013-1-26,26,20,14,13,10,8,92,68,48,30.40,30.06,14,2,14,0.00
2013-1-27,34,24,12,17,13,7,80,65,47,30.55,30.39,12,1,12,0.00
2013-1-28,33,29,22,33,26,16,98,89,69,30.50,30.01,8,1,8,0.09
2013-1-29,49,41,33,45,39,33,98,94,84,30.14,30.01,7,0,7,0.09
2013-1-30,64,50,42,60,49,41,100,98,87,30.03,29.29,20,1,20,0.72
2013-1-31,56,40,26,56,30,12,100,67,43,29.79,29.03,31,7,32,1.02
2013-2-1,29,25,20,18,12,8,71,58,42,30.25,29.78,25,4,25,0.00
2013-2-2,22,20,15,20,12,7,94,73,55,30.30,30.04,16,3,16,0.00
2013-2-3,26,22,16,22,19,15,95,88,78,30.04,29.80,16,1,16,0.08
2013-2-4,28,24,19,20,14,11,82,64,49,30.01,29.85,23,3,23,0.00
2013-2-5,30,27,24,28,24,18,96,87,73,29.96,29.87,6,0,7,0.00
2013-2-6,37,31,26,28,23,14,97,73,51,30.34,29.91,13,2,14,0.04
2013-2-7,32,27,20,22,16,12,73,65,53,30.48,30.28,9,1,10,0.00
2013-2-8,33,32,28,31,29,20,96,89,70,30.28,29.70,16,4,17,0.07
2013-2-9,32,26,19,31,17,11,97,70,50,30.38,29.77,25,6,25,0.06
2013-2-10,37,25,13,20,14,9,92,63,40,30.48,30.29,9,1,10,0.03
2013-2-11,40,35,31,40,32,19,99,91,59,30.30,29.66,9,0,9,0.22
2013-2-12,42,38,32,37,27,24,99,64,56,29.97,29.74,22,4,23,0.00
2013-2-13,41,34,25,32,28,22,96,78,61,29.95,29.67,8,0,8,0.03
2013-2-14,43,36,30,34,30,27,100,82,58,29.98,29.71,12,1,12,0.02
2013-2-15,52,40,30,36,30,26,95,72,45,30.00,29.91,22,2,22,0.12
2013-2-16,35,32,27,33,24,12,97,74,51,29.97,29.78,18,3,18,0.03
2013-2-17,29,24,17,13,7,1,54,47,38,30.08,29.75,23,7,25,0.00
2013-2-18,35,24,15,17,9,2,61,52,36,30.30,30.08,19,4,20,0.00
2013-2-19,40,32,25,37,26,14,100,79,57,30.18,29.70,17,1,17,0.27
2013-2-20,34,27,23,26,15,12,73,60,52,30.03,29.76,27,5,27,0.00
2013-2-21,35,27,22,18,15,12,73,63,50,30.32,30.01,20,5,20,0.00
2013-2-22,36,29,20,29,22,14,86,75,64,30.41,30.24,14,1,15,0.00
2013-2-23,41,37,33,40,36,29,98,96,86,30.24,29.81,9,2,11,0.09
2013-2-24,43,37,32,38,31,23,98,80,64,30.01,29.77,18,3,18,0.00
2013-2-25,44,36,30,31,26,23,81,69,52,30.23,30.01,16,2,16,0.00
2013-2-26,43,34,26,34,30,24,95,84,67,30.25,29.81,23,3,23,0.30
2013-2-27,46,40,35,44,38,33,98,91,79,29.82,29.51,21,6,21,0.35
2013-2-28,44,39,34,37,34,30,92,82,59,29.64,29.56,15,2,15,0.00
2013-3-1,42,37,32,32,29,24,93,74,60,29.81,29.63,20,4,20,0.00
2013-3-2,36,32,29,25,23,20,74,68,61,29.81,29.74,13,4,15,0.00
2013-3-3,34,30,26,21,20,18,77,66,56,29.82,29.72,17,5,19,0.00
2013-3-4,41,32,28,24,20,17,70,61,46,29.96,29.81,16,5,17,0.00
2013-3-5,46,37,31,29,26,23,74,63,49,30.03,29.93,17,3,17,0.00
2013-3-6,40,38,35,38,31,27,92,76,66,29.98,29.82,31,8,31,0.01
2013-3-7,44,38,35,30,27,25,80,64,51,30.10,29.96,22,6,22,0.00
2013-3-8,44,36,30,31,27,24,89,73,60,30.24,30.05,23,5,23,0.01
2013-3-9,61,45,31,27,23,15,72,45,18,30.30,30.21,12,2,12,0.00
2013-3-10,57,44,30,37,30,24,81,62,33,30.34,30.23,12,1,12,0.00
2013-3-11,55,45,36,48,40,33,98,84,61,30.28,30.00,14,2,14,0.00
2013-3-12,56,51,42,56,48,35,99,90,75,30.01,29.66,15,3,15,1.48
2013-3-13,48,40,34,35,29,20,82,65,46,29.92,29.80,18,3,20,0.00
2013-3-14,41,34,29,20,15,10,69,47,31,29.99,29.88,24,5,24,0.00
2013-3-15,47,37,25,33,23,13,68,57,47,30.01,29.71,22,4,23,0.00
2013-3-16,43,34,31,31,27,22,94,78,62,29.92,29.75,11,1,12,0.07
2013-3-17,36,32,28,29,21,17,92,65,50,30.30,29.91,16,3,16,0.01
2013-3-18,35,29,25,30,21,13,97,72,50,30.37,29.94,19,4,19,0.00
2013-3-19,49,37,31,38,31,18,98,82,44,29.94,29.68,26,3,29,0.51
2013-3-20,44,36,30,23,21,18,70,53,36,29.89,29.77,20,4,22,0.00
2013-3-21,38,32,27,26,20,13,83,63,38,29.82,29.65,17,4,17,0.00
2013-3-22,40,31,26,24,20,14,76,64,46,29.91,29.74,17,4,19,0.00
2013-3-23,45,37,30,25,22,19,69,55,39,29.96,29.86,20,4,20,0.00
2013-3-24,46,39,31,27,22,20,64,52,38,29.96,29.68,14,2,19,0.00
2013-3-25,38,36,32,35,31,26,96,83,64,29.68,29.48,13,2,14,0.10
2013-3-26,51,41,35,34,31,24,92,70,38,29.89,29.62,20,2,20,0.00
2013-3-27,50,41,32,36,30,26,86,67,41,30.02,29.88,18,3,18,0.00
2013-3-28,47,41,32,32,30,27,85,66,50,30.14,29.98,16,3,16,0.00
2013-3-29,51,44,33,33,30,27,79,60,45,30.16,30.08,17,2,17,0.00
2013-3-30,58,45,31,34,26,20,87,53,24,30.18,30.06,17,1,17,0.00
2013-3-31,56,44,32,44,34,23,97,70,44,30.10,29.69,22,2,22,0.21
2013-4-1,58,47,35,49,36,15,98,69,32,29.92,29.64,23,6,23,0.00
2013-4-2,43,35,28,18,15,12,61,44,31,30.10,29.92,22,3,22,0.00
2013-4-3,44,36,27,20,15,10,61,43,27,30.32,30.09,21,3,21,0.00
2013-4-4,53,40,28,26,20,14,65,47,33,30.39,30.06,12,2,13,0.00
2013-4-5,60,48,37,29,25,19,72,45,22,30.06,29.75,20,3,23,0.00
2013-4-6,52,42,32,24,18,14,58,40,23,30.30,30.02,19,3,19,0.00
2013-4-7,62,50,38,42,34,22,71,55,43,30.27,29.95,19,3,20,0.00
2013-4-8,76,62,45,52,45,40,87,58,31,30.06,29.92,11,1,14,0.00
2013-4-9,82,70,58,55,48,39,79,49,23,29.97,29.85,19,2,23,0.00
2013-4-10,85,68,59,62,56,51,97,68,42,29.90,29.74,23,2,23,0.45
2013-4-11,61,56,48,61,52,43,98,86,66,29.97,29.75,18,4,18,0.01
2013-4-12,48,43,41,44,41,40,100,93,81,29.93,29.69,20,5,20,0.88
2013-4-13,57,48,40,42,38,33,98,69,46,29.96,29.75,14,2,15,0.00
2013-4-14,59,50,42,38,34,28,81,54,35,30.17,29.95,16,3,20,0.00
2013-4-15,62,52,43,44,37,31,70,58,50,30.33,30.17,11,2,12,0.00
2013-4-16,69,58,48,58,50,41,89,76,68,30.32,30.08,20,2,20,0.00
2013-4-17,72,61,53,58,44,35,95,58,28,30.26,30.09,9,1,13,0.06
2013-4-18,56,53,49,55,47,41,96,81,60,30.28,30.04,13,1,13,0.14
2013-4-19,75,65,52,66,60,48,97,87,70,30.04,29.55,26,4,26,0.97
2013-4-20,56,49,42,49,35,23,94,60,38,30.32,29.69,21,4,21,0.06
2013-4-21,54,47,34,31,26,21,68,44,31,30.59,30.32,15,4,16,0.00
2013-4-22,54,45,36,38,32,29,78,61,47,30.61,30.45,18,2,18,0.00
2013-4-23,51,45,40,43,38,33,85,76,66,30.45,30.12,17,2,17,0.00
2013-4-24,71,55,42,58,48,39,92,78,57,30.12,29.77,16,2,16,0.03
2013-4-25,62,53,42,53,33,27,85,50,27,30.25,29.87,18,2,20,0.01
2013-4-26,64,54,46,37,31,24,66,44,23,30.40,30.25,16,2,16,0.00
2013-4-27,69,56,43,42,35,30,64,46,29,30.42,30.24,9,1,9,0.00
2013-4-28,70,58,43,46,40,35,85,54,34,30.28,30.14,17,1,17,0.00
2013-4-29,55,52,51,52,49,39,98,89,55,30.20,30.11,11,1,11,0.20
2013-4-30,67,57,49,53,45,28,99,70,32,30.31,30.16,13,2,16,0.01
2013-5-1,70,56,40,45,37,30,80,51,25,30.45,30.31,12,1,12,0.00
2013-5-2,73,59,42,48,44,39,95,61,35,30.44,30.29,9,1,11,0.00
2013-5-3,66,58,51,47,41,35,75,56,33,30.41,30.30,15,2,15,0.00
2013-5-4,71,50,42,48,42,40,92,76,35,30.35,30.17,13,1,13,0.00
2013-5-5,68,53,41,46,42,39,94,68,37,30.26,30.15,12,1,12,0.00
2013-5-6,70,56,42,55,48,39,93,77,57,30.23,30.10,13,1,13,0.00
2013-5-7,74,62,48,59,54,47,96,77,55,30.14,30.03,17,2,17,0.00
2013-5-8,70,62,57,63,59,54,97,90,72,30.06,29.89,16,2,17,0.79
2013-5-9,70,61,55,59,56,55,99,86,63,29.95,29.87,10,0,10,0.03
2013-5-10,79,67,54,62,58,53,98,76,44,29.99,29.85,15,1,15,0.19
2013-5-11,70,64,59,66,62,57,99,93,80,29.88,29.67,12,1,12,0.27
2013-5-12,62,57,47,57,41,27,95,59,31,29.94,29.67,22,3,22,0.01
2013-5-13,54,46,39,35,32,26,80,58,37,30.13,29.94,18,2,18,0.00
2013-5-14,62,49,34,35,30,23,92,52,26,30.16,30.01,13,1,13,0.00
2013-5-15,73,60,47,60,49,34,81,68,59,30.05,29.66,12,1,14,0.01
2013-5-16,84,69,57,63,54,42,94,65,27,29.84,29.70,19,1,23,0.00
2013-5-17,74,64,54,46,43,40,67,47,30,30.17,29.84,13,1,14,0.00
2013-5-18,65,60,54,56,50,43,86,72,56,30.26,30.17,12,1,13,0.00
2013-5-19,60,58,55,60,56,54,99,96,86,30.26,30.15,11,1,11,0.12
2013-5-20,80,67,57,69,63,56,100,88,64,30.16,29.94,9,0,12,0.01
2013-5-21,68,64,63,66,64,62,100,98,93,29.95,29.91,1,0,1,0.00
2013-5-22,88,75,64,75,69,64,99,82,54,29.94,29.77,17,1,17,0.00
2013-5-23,78,70,62,71,66,61,97,89,75,29.85,29.72,16,1,16,0.48
2013-5-24,62,53,45,61,49,39,99,88,70,30.01,29.67,23,2,23,0.13
2013-5-25,59,52,45,41,38,34,82,60,41,30.05,29.95,29,4,29,0.01
2013-5-26,68,57,46,42,38,34,75,50,31,30.20,30.01,20,2,20,0.00
2013-5-27,73,60,42,45,40,35,82,51,29,30.25,30.12,15,1,15,0.00
2013-5-28,59,56,51,57,52,45,99,88,59,30.20,30.10,6,0,7,0.21
2013-5-29,86,70,57,71,63,57,100,83,54,30.11,29.98,17,1,17,0.01
2013-5-30,92,79,66,71,66,62,95,67,37,30.12,30.04,13,1,14,0.00
2013-5-31,92,80,67,72,66,58,94,66,34,30.10,29.96,15,1,17,0.00
2013-6-1,90,79,66,73,69,64,97,73,53,29.99,29.86,14,1,16,0.00
2013-6-2,86,78,72,71,69,66,87,73,57,29.87,29.74,17,2,17,0.02
2013-6-3,79,72,64,70,64,51,97,78,59,29.90,29.78,11,1,13,0.32
2013-6-4,75,65,54,51,46,39,72,51,32,30.10,29.90,22,2,22,0.00
2013-6-5,76,65,51,54,47,37,66,52,40,30.19,30.06,11,1,11,0.00
2013-6-6,69,62,55,61,56,50,97,81,59,30.11,29.95,11,1,11,0.36
2013-6-7,62,60,59,62,60,58,99,98,96,29.95,29.62,22,3,22,1.47
2013-6-8,77,67,59,66,62,58,97,83,62,30.05,29.63,15,1,15,0.02
2013-6-9,82,71,57,64,60,55,95,71,49,30.16,30.05,12,1,12,0.00
2013-6-10,68,65,62,66,64,61,100,95,81,30.12,29.75,13,1,13,1.07
2013-6-11,78,72,66,70,66,62,100,84,65,29.75,29.64,20,2,21,0.01
2013-6-12,80,72,64,62,58,55,84,65,43,29.83,29.73,16,2,16,0.00
2013-6-13,66,62,56,64,60,55,98,90,75,29.82,29.43,20,2,20,1.32
2013-6-14,76,64,55,62,55,51,96,76,51,29.91,29.54,18,2,18,0.07
2013-6-15,81,70,59,62,57,52,87,65,41,30.01,29.91,17,1,17,0.00
2013-6-16,80,70,59,67,61,56,94,76,50,29.99,29.78,19,2,19,0.00
2013-6-17,87,75,64,70,64,57,96,70,37,29.90,29.81,14,1,15,0.00
2013-6-18,82,70,62,72,65,60,97,85,58,29.88,29.77,11,0,11,0.35
2013-6-19,77,67,58,60,54,49,96,67,40,30.14,29.88,13,1,14,0.01
2013-6-20,81,69,54,64,57,49,85,66,46,30.25,30.14,11,1,11,0.00
2013-6-21,83,72,58,65,58,54,88,65,47,30.28,30.20,13,1,14,0.00
2013-6-22,85,73,59,68,63,54,90,71,54,30.24,30.09,12,1,14,0.00
2013-6-23,87,77,65,73,69,63,95,77,59,30.17,30.01,12,1,12,0.00
2013-6-24,91,80,72,74,71,64,96,76,47,30.06,29.94,17,1,30,0.45
2013-6-25,90,77,67,77,70,66,98,81,55,29.99,29.80,17,3,17,0.11
2013-6-26,86,72,67,72,67,65,94,85,59,29.85,29.77,13,2,13,0.51
2013-6-27,87,76,67,73,70,66,97,82,60,29.80,29.50,15,1,15,0.45
2013-6-28,84,75,67,71,69,65,98,83,61,29.53,29.44,13,1,14,0.02
2013-6-29,85,74,66,69,66,63,97,76,50,29.68,29.46,13,1,13,0.00
2013-6-30,83,76,68,75,70,65,93,82,69,29.88,29.68,15,2,15,0.14
2013-7-1,78,73,69,74,71,68,99,94,85,29.99,29.85,12,1,12,2.91
2013-7-2,83,77,74,75,73,71,96,87,74,30.15,29.99,14,1,14,0.04
2013-7-3,84,77,72,75,73,70,96,88,71,30.22,30.13,9,1,11,0.02
2013-7-4,88,79,72,77,74,72,99,85,65,30.23,30.12,13,1,13,0.00
2013-7-5,90,81,72,76,74,71,97,79,58,30.19,30.07,13,1,14,0.00
2013-7-6,92,83,73,77,74,72,96,77,55,30.13,30.00,13,1,13,0.00
2013-7-7,92,81,72,78,73,67,95,78,58,30.06,29.92,23,1,23,0.00
2013-7-8,87,76,68,73,69,66,96,79,57,30.04,29.95,12,1,13,0.00
2013-7-9,86,76,68,76,70,66,92,82,69,30.06,29.97,17,0,17,0.01
2013-7-10,86,78,72,76,73,70,96,84,64,29.99,29.80,14,1,14,0.08
2013-7-11,85,78,72,74,67,60,87,72,50,29.91,29.78,11,1,12,0.00
2013-7-12,77,72,69,70,65,60,97,80,68,30.05,29.91,14,3,14,0.17
2013-7-13,81,72,66,75,70,65,99,93,82,30.27,30.05,12,2,13,0.54
2013-7-14,90,81,74,77,74,71,100,81,55,30.32,30.22,13,1,13,0.00
2013-7-15,94,84,73,77,74,71,96,73,50,30.24,30.13,13,1,15,0.00
2013-7-16,92,84,74,73,70,67,84,64,46,30.20,30.11,14,2,14,0.00
2013-7-17,94,84,72,75,71,69,94,68,47,30.19,30.03,10,0,10,0.00
2013-7-18,98,87,77,79,73,70,88,66,43,30.06,29.94,10,1,10,0.00
2013-7-19,95,86,76,79,75,70,88,71,55,29.95,29.77,15,1,15,0.00
2013-7-20,91,81,74,77,73,70,90,77,54,29.82,29.72,17,2,17,0.00
2013-7-21,88,80,73,73,70,64,94,72,50,29.93,29.81,10,1,10,0.00
2013-7-22,86,76,71,75,71,68,98,86,67,29.93,29.77,14,0,17,0.36
2013-7-23,85,77,70,76,72,70,99,85,65,29.77,29.56,15,1,15,0.40
2013-7-24,79,72,62,71,63,52,90,73,52,29.94,29.62,18,3,18,0.00
2013-7-25,73,64,58,62,56,51,81,74,65,30.04,29.93,16,3,16,0.00
2013-7-26,83,72,61,63,59,56,87,66,41,30.04,29.97,12,1,12,0.00
2013-7-27,83,73,60,69,64,58,93,76,59,30.03,29.90,14,1,14,0.00
2013-7-28,78,71,66,73,68,63,99,91,76,29.96,29.87,13,0,13,0.95
2013-7-29,81,72,62,68,60,54,97,70,44,30.10,29.93,14,1,16,0.00
2013-7-30,78,69,59,61,58,56,90,69,50,30.18,30.10,12,1,12,0.00
2013-7-31,81,70,58,66,62,57,97,76,53,30.16,30.00,9,0,9,0.00
2013-8-1,71,68,67,68,66,64,98,94,84,30.01,29.81,11,0,17,0.68
2013-8-2,82,72,62,69,64,60,98,77,53,29.92,29.81,15,1,16,0.00
2013-8-3,76,69,65,69,64,59,97,85,73,29.91,29.84,11,1,14,0.17
2013-8-4,77,70,60,65,58,54,95,69,49,30.00,29.86,17,2,18,0.00
2013-8-5,78,68,57,57,53,49,84,62,40,30.07,29.98,12,1,14,0.00
2013-8-6,80,68,55,65,59,53,95,75,49,30.10,30.02,13,1,13,0.00
2013-8-7,73,69,65,69,66,62,97,91,83,30.10,30.01,17,1,17,0.43
2013-8-8,82,73,69,77,72,68,100,95,78,30.03,29.95,13,0,16,0.56
2013-8-9,85,76,73,77,74,72,99,94,74,29.97,29.78,14,1,14,1.26
2013-8-10,84,74,66,72,65,60,98,74,51,30.04,29.87,14,1,18,0.01
2013-8-11,81,71,60,68,61,54,93,72,52,30.13,30.00,11,0,11,0.03
2013-8-12,84,74,66,68,66,61,98,79,51,30.02,29.90,11,0,11,0.25
2013-8-13,81,72,67,71,68,62,98,88,70,29.90,29.68,12,0,12,0.95
2013-8-14,72,64,56,62,53,48,85,67,53,30.06,29.77,17,2,17,0.00
2013-8-15,76,64,52,58,53,49,94,68,40,30.15,30.06,11,1,12,0.00
2013-8-16,80,67,54,61,56,53,97,71,41,30.19,30.12,9,0,9,0.00
2013-8-17,81,69,57,63,59,55,95,73,44,30.27,30.19,11,0,11,0.00
2013-8-18,72,68,62,64,62,59,92,82,67,30.25,30.13,7,0,7,0.01
2013-8-19,76,68,61,66,63,59,97,84,61,30.14,30.03,9,0,10,0.01
2013-8-20,86,74,63,71,66,62,98,80,54,30.13,30.05,11,1,12,0.00
2013-8-21,86,74,62,70,66,61,98,77,51,30.18,30.03,11,0,11,0.00
2013-8-22,82,74,69,75,70,67,96,90,69,30.05,29.87,22,1,22,0.06
2013-8-23,79,72,65,68,61,55,96,72,48,30.10,29.89,14,2,15,0.00
2013-8-24,79,68,60,58,55,53,84,65,42,30.34,30.10,14,1,14,0.00
2013-8-25,80,67,53,64,57,52,97,74,44,30.40,30.22,13,1,13,0.00
2013-8-26,82,72,64,70,64,57,91,77,65,30.23,29.91,13,1,13,0.04
2013-8-27,87,77,69,71,69,66,96,77,55,29.91,29.83,12,1,13,0.00
2013-8-28,73,71,68,71,69,66,99,96,89,29.88,29.82,10,0,11,0.38
2013-8-29,83,73,68,72,70,68,100,90,68,30.01,29.88,10,1,11,0.05
2013-8-30,83,74,67,74,70,65,96,88,71,30.01,29.83,13,1,13,0.00
2013-8-31,85,77,69,76,72,68,99,87,71,29.85,29.76,11,1,11,0.00
2013-9-1,85,77,71,76,73,70,97,88,72,29.82,29.75,10,0,12,0.09
2013-9-2,80,72,69,75,70,69,99,94,76,29.78,29.68,12,1,12,0.92
2013-9-3,80,72,66,70,63,57,98,77,48,29.89,29.70,14,1,15,0.00
2013-9-4,80,69,59,63,60,57,92,73,48,30.02,29.89,13,1,14,0.00
2013-9-5,75,67,59,63,54,45,89,67,38,30.16,29.93,18,2,18,0.00
2013-9-6,71,60,49,50,45,40,85,60,38,30.26,30.13,14,1,14,0.00
2013-9-7,78,63,48,58,52,47,97,71,41,30.14,29.90,9,0,9,0.00
2013-9-8,79,68,58,67,57,46,87,69,42,30.08,29.83,19,2,19,0.00
2013-9-9,74,63,49,63,53,45,87,72,55,30.22,30.08,10,1,13,0.00
2013-9-10,87,76,67,77,71,63,94,85,68,30.14,30.02,11,1,12,0.00
2013-9-11,93,81,72,80,74,70,98,82,61,30.11,29.95,15,1,15,0.00
2013-9-12,85,74,67,76,71,66,99,91,73,29.96,29.67,25,0,29,0.84
2013-9-13,73,65,56,67,59,49,99,81,58,29.88,29.64,23,2,23,0.04
2013-9-14,61,55,49,49,47,44,86,74,64,30.15,29.88,20,2,20,0.00
2013-9-15,72,57,43,56,49,42,97,76,45,30.22,30.07,10,0,10,0.00
2013-9-16,69,61,53,58,54,46,97,79,54,30.26,30.02,19,2,19,0.05
2013-9-17,64,54,42,46,42,40,91,68,43,30.43,30.26,15,2,15,0.00
2013-9-18,70,55,40,52,46,39,98,75,45,30.35,30.18,12,0,12,0.00
2013-9-19,76,60,45,56,50,44,98,75,40,30.19,30.06,9,0,10,0.00
2013-9-20,79,64,49,63,56,48,98,79,50,30.08,29.95,10,0,11,0.00
2013-9-21,76,64,54,64,59,53,97,84,57,29.99,29.66,17,1,17,0.53
2013-9-22,65,60,54,60,50,42,97,72,49,29.94,29.66,19,2,19,0.05
2013-9-23,62,55,49,46,43,41,81,65,53,30.06,29.94,19,3,19,0.00
2013-9-24,73,57,43,50,45,40,91,66,39,30.07,29.90,13,1,13,0.00
2013-9-25,73,58,45,53,48,42,93,71,46,29.97,29.86,10,0,10,0.00
2013-9-26,73,60,48,59,54,46,99,82,57,30.09,29.93,12,1,12,0.00
2013-9-27,70,60,51,55,52,49,91,75,52,30.26,30.09,9,1,12,0.00
2013-9-28,73,62,56,55,53,49,90,73,45,30.32,30.23,10,1,12,0.00
2013-9-29,72,59,47,56,52,46,98,79,52,30.23,30.06,8,0,8,0.00
2013-9-30,74,60,46,58,53,46,98,79,49,30.08,29.96,9,0,9,0.01
2013-10-1,79,64,52,63,56,50,97,78,49,30.03,29.91,17,1,19,0.00
2013-10-2,82,69,54,65,60,52,95,75,53,30.02,29.92,16,1,18,0.00
2013-10-3,79,67,56,64,60,55,98,79,50,30.12,30.01,8,0,9,0.00
2013-10-4,84,71,60,70,64,59,98,82,58,30.06,29.95,12,0,12,0.00
2013-10-5,84,73,64,69,66,62,96,80,56,30.08,29.98,9,0,9,0.00
2013-10-6,70,67,64,67,66,63,98,94,88,30.05,29.97,9,1,12,0.01
2013-10-7,75,64,53,70,62,48,97,93,80,29.99,29.70,21,2,23,1.03
2013-10-8,67,57,49,49,47,45,89,71,48,30.32,29.99,16,2,17,0.00
2013-10-9,60,54,47,47,46,43,86,74,58,30.39,30.28,14,2,15,0.00
2013-10-10,57,54,50,53,49,45,94,85,77,30.28,30.06,17,4,18,0.19
2013-10-11,64,61,57,60,55,49,93,83,75,30.08,30.00,20,4,20,0.11
2013-10-12,73,64,57,57,49,38,81,60,31,30.24,30.05,18,4,18,0.00
2013-10-13,66,59,52,55,52,50,94,77,61,30.35,30.24,14,2,15,0.00
2013-10-14,68,56,45,53,49,44,99,80,52,30.36,30.22,7,0,7,0.00
2013-10-15,73,58,46,57,48,36,98,72,42,30.25,30.10,10,0,10,0.00
2013-10-16,63,57,50,58,52,40,91,84,58,30.11,29.90,5,0,5,0.00
2013-10-17,73,65,60,64,61,58,96,86,65,29.90,29.66,16,1,17,0.02
2013-10-18,65,57,49,62,46,42,91,68,51,29.99,29.68,19,3,19,0.00
2013-10-19,62,52,40,54,45,38,97,80,54,29.99,29.75,15,1,15,0.11
2013-10-20,61,51,42,51,41,37,97,70,43,30.07,29.77,16,2,16,0.00
2013-10-21,66,51,38,46,41,37,97,72,41,30.15,29.96,13,1,13,0.00
2013-10-22,60,52,45,51,43,32,97,74,39,29.96,29.75,14,1,15,0.00
2013-10-23,54,44,36,39,35,33,90,72,48,29.82,29.64,13,1,13,0.00
2013-10-24,51,42,35,37,32,28,92,71,43,30.03,29.79,27,2,27,0.00
2013-10-25,52,42,33,37,33,29,92,72,51,30.23,30.03,18,2,18,0.00
2013-10-26,54,43,33,36,32,30,89,68,43,30.24,29.89,19,2,19,0.00
2013-10-27,54,47,39,37,34,32,76,60,47,30.13,29.86,16,2,16,0.00
2013-10-28,61,49,32,39,36,29,92,63,42,30.31,30.12,13,1,13,0.00
2013-10-29,58,47,39,38,35,31,77,62,44,30.41,30.31,13,1,13,0.00
2013-10-30,57,48,40,50,43,32,92,82,67,30.34,30.17,5,0,5,0.00
2013-10-31,63,56,49,60,54,47,100,94,85,30.22,29.76,12,0,14,0.07
2013-11-1,70,63,53,64,56,45,96,80,53,29.75,29.50,27,2,27,0.38
2013-11-2,62,54,48,49,45,41,92,72,50,29.79,29.62,17,1,17,0.00
2013-11-3,49,43,31,44,31,20,83,65,47,30.47,29.79,19,4,22,0.00
2013-11-4,45,36,27,24,21,18,74,55,36,30.65,30.47,18,1,18,0.00
2013-11-5,54,45,31,43,36,22,84,71,59,30.65,30.46,9,0,9,0.00
2013-11-6,62,52,46,50,46,43,92,81,65,30.47,30.04,14,0,14,0.00
2013-11-7,57,51,41,56,47,34,97,86,69,30.04,29.77,20,2,22,0.15
2013-11-8,48,41,34,36,30,28,81,66,51,30.24,29.95,20,3,23,0.00
2013-11-9,49,40,32,33,30,27,83,67,44,30.30,29.97,12,1,12,0.00
2013-11-10,55,45,35,38,33,30,85,63,49,30.09,29.85,28,4,28,0.00
2013-11-11,50,45,36,36,32,27,71,60,51,30.22,29.95,16,2,18,0.00
2013-11-12,49,35,29,36,23,15,78,61,51,30.33,29.93,25,5,25,0.00
2013-11-13,38,31,25,22,17,13,72,56,42,30.42,30.28,21,3,23,0.00
2013-11-14,51,37,28,23,21,18,75,55,30,30.28,30.17,15,3,17,0.00
2013-11-15,56,43,31,31,25,19,78,51,30,30.24,30.15,12,0,12,0.00
2013-11-16,60,48,39,46,41,28,94,78,56,30.32,30.24,9,0,9,0.06
2013-11-17,61,55,48,58,53,46,100,92,82,30.24,29.71,16,1,16,0.01
2013-11-18,62,56,47,60,41,28,97,61,35,29.83,29.59,24,4,24,0.32
2013-11-19,48,40,33,31,26,23,67,55,48,30.37,29.82,23,6,26,0.00
2013-11-20,44,35,30,23,18,11,74,51,28,30.60,30.37,17,2,17,0.00
2013-11-21,49,39,25,39,28,16,79,65,55,30.60,30.38,9,0,10,0.00
2013-11-22,53,48,45,48,45,38,95,87,75,30.38,29.94,14,1,15,0.03
2013-11-23,52,39,26,46,26,5,86,60,39,30.10,29.93,28,6,29,0.00
2013-11-24,27,24,20,8,4,2,55,44,36,30.42,30.08,36,7,36,0.00
2013-11-25,34,27,18,17,14,8,80,59,47,30.50,30.32,13,2,13,0.00
2013-11-26,39,32,30,38,25,16,98,77,55,30.32,29.69,15,1,15,0.72
2013-11-27,47,39,30,47,36,20,99,87,59,29.81,29.40,25,4,26,0.78
2013-11-28,34,30,27,24,18,12,79,61,43,30.46,29.81,29,4,29,0.00
2013-11-29,36,30,25,23,20,16,73,65,52,30.74,30.45,13,2,14,0.00
2013-11-30,34,28,20,28,20,13,85,72,58,30.74,30.37,9,1,9,0.00
2013-12-1,42,35,26,32,28,24,95,78,62,30.37,30.01,5,0,10,0.00
2013-12-2,45,38,33,34,31,29,89,77,64,30.01,29.88,6,0,6,0.00
2013-12-3,52,40,32,38,34,29,96,79,53,30.00,29.88,10,0,10,0.00
2013-12-4,49,41,32,44,37,30,96,85,73,30.12,30.00,10,0,10,0.00
2013-12-5,53,50,45,53,49,43,99,97,86,30.10,29.91,3,0,6,0.02
2013-12-6,57,44,36,57,42,33,100,93,82,30.17,29.85,19,2,19,0.54
2013-12-7,36,33,28,34,28,19,95,80,69,30.53,30.09,17,3,17,0.01
2013-12-8,29,26,23,26,21,17,96,80,67,30.59,30.35,13,1,13,0.00
2013-12-9,34,32,27,33,31,26,98,97,96,30.35,29.99,11,1,11,0.23
2013-12-10,33,30,22,31,27,16,98,90,73,30.14,29.91,11,1,13,0.06
2013-12-11,31,24,19,19,16,14,80,72,59,30.34,30.14,18,2,18,0.01
2013-12-12,27,22,16,19,11,6,84,60,45,30.38,30.16,15,3,16,0.00
2013-12-13,34,26,15,21,15,6,70,62,52,30.32,30.14,18,2,18,0.00
2013-12-14,29,23,18,22,19,16,95,87,70,30.44,29.78,19,4,19,0.00
2013-12-15,38,30,21,34,26,20,97,84,67,29.85,29.57,26,4,26,0.04
2013-12-16,30,25,17,23,12,8,84,59,45,30.21,29.84,19,6,19,0.00
2013-12-17,23,19,15,21,16,11,100,89,72,30.20,29.96,9,0,9,0.00
2013-12-18,35,26,16,25,19,14,95,79,61,30.19,29.95,17,2,19,0.09
2013-12-19,40,30,18,29,23,16,94,78,61,30.18,30.04,7,0,7,0.11
2013-12-20,47,38,30,34,31,26,88,74,58,30.10,29.97,6,0,6,0.13
2013-12-21,53,44,36,47,38,32,92,80,69,29.99,29.88,5,0,5,0.00
2013-12-22,61,56,44,60,55,42,99,96,90,29.94,29.77,12,1,16,0.05
2013-12-23,54,53,51,54,53,50,99,98,97,29.95,29.92,1,0,1,0.05
2013-12-24,35,35,35,35,26,22,100,74,60,30.17,30.17,10,9,10,0.00
2013-12-26,33,27,22,29,24,17,92,86,79,30.31,30.19,12,1,13,0.02
2013-12-27,38,31,25,26,23,19,80,71,58,30.36,30.27,18,1,18,0.00
2013-12-28,51,37,24,32,27,22,92,69,47,30.28,30.07,17,2,18,0.00
2013-12-29,42,38,36,41,34,29,100,85,66,30.07,29.48,18,2,19,0.86
2013-12-30,42,34,24,37,27,14,95,75,59,30.17,29.73,18,4,20,0.00
2013-12-31,31,23,17,26,15,11,90,72,54,30.30,30.06,25,2,25,0.00
2014-1-1,31,26,20,22,18,11,79,71,61,30.40,30.21,10,1,10,0.00
2014-1-2,27,22,15,22,18,13,93,86,79,30.21,29.70,18,5,19,0.00